Content
SEND FEEDBACK

Daily
Averages
Monthly
Summary
United States of America

NEDERLAND, COLORADO


Home > North America > United States > Colorado
Elevation: 8311 feet     Latitude: 39 59N     Longitude: 105 30W

WEATHER
 
SELECT A DAY
Number of Records: 152,761;   Date Range: 1/1/95 - 10/19/14
 
SHARE

PRINT THIS DATA

[ ← Previous Day ]
WEATHER ALMANAC - JANUARY 31, 2013
[ Next Day → ]
[ °C ]   °F
Weather ElementAverageHighLow
Temperature36.5 °F46.4 °F (2:47 pm)24.8 °F (7:50 am)
Dewpoint14.9 °F23 °F (6:50 pm)8.6 °F (1:36 am)
Humidity43.6 %74 % (7:50 am)25 % (1:53 pm)
Barometer29.99 in30.10 in (8:55 pm)29.86 in (12:36 am)
Wind Speed8.7 mph29.9 mph (1:53 pm)
Wind Gust43.7 mph (1:53 pm)
Weather ElementAverage
Visibility24.4 mi
Wind DirectionSSE (166.5 °)

Weather ElementTotal
Precipitation---
Heating Degree Days29.4 (Base 65)
Averaged from 37 records on January 31, 2013
WEATHER CONDITIONS BREAKOUT
WIND DIRECTION BREAKOUT
WEATHER BY HOUR - JANUARY 31, 2013
[ °C ]   °F
Local TimeTemperatureDewpointHumidityBarometerVisibilityWind DirectionWind SpeedGust SpeedPrecipitationEventsConditions
12:36 AM35.6 °F10.4 °F35 %29.86 in10.0 miCalmClear
12:55 AM37.4 °F10.4 °F33 %29.86 in10.0 miCalmClear
1:16 AM37.4 °F10.4 °F33 %29.86 in10.0 miCalmClear
1:36 AM37.4 °F8.6 °F30 %29.86 in10.0 miNW (310°)4.6 mphScattered Clouds
1:56 AM35.6 °F10.4 °F35 %29.86 in10.0 miCalmScattered Clouds
2:16 AM37.4 °F12.2 °F36 %29.86 in10.0 miWNW (290°)23.0 mph28.8 mphClear
2:36 AM35.6 °F14.0 °F41 %29.87 in10.0 miNW (310°)11.5 mph17.3 mphClear
2:55 AM33.8 °F14.0 °F44 %29.89 in10.0 miWNW (290°)9.2 mphClear
3:16 AM33.8 °F14.0 °F44 %29.87 in10.0 miWest (270°)6.9 mphClear
3:36 AM33.8 °F12.2 °F41 %29.87 in10.0 miCalmClear
3:56 AM37.4 °F10.4 °F33 %29.89 in10.0 miCalmClear
4:15 AM35.6 °F12.2 °F38 %29.89 in10.0 miNNW (330°)17.3 mph23.0 mphClear
4:36 AM37.4 °F10.4 °F33 %29.89 in10.0 miNNW (330°)16.1 mph20.7 mphClear
4:56 AM37.4 °F10.4 °F33 %29.90 in10.0 miNW (320°)10.4 mph26.5 mphClear
5:46 AM33.8 °F12.2 °F41 %29.92 in30.0 miNNE (20°)8.1 mph17.3 mphMostly Cloudy
6:48 AM26.6 °F15.8 °F64 %29.94 in50.0 miNNE (30°)10.4 mphScattered Clouds
7:50 AM24.8 °F17.6 °F74 %30.02 in50.0 miNE (40°)5.8 mphPartly Cloudy
8:47 AM26.6 °F19.4 °F74 %30.06 in40.0 miCalmScattered Clouds
9:45 AM30.2 °F19.4 °F64 %30.00 in50.0 miENE (70°)5.8 mphScattered Clouds
10:45 AM35.6 °F19.4 °F52 %30.09 in50.0 miSE (130°)3.5 mphScattered Clouds
11:47 AM44.6 °F14.0 °F29 %30.07 in40.0 miWest (270°)8.1 mphScattered Clouds
12:18 PM44.6 °F14.0 °F29 %30.06 in50.0 miWest (270°)23.0 mph29.9 mphScattered Clouds
12:53 PM44.6 °F14.0 °F29 %30.06 inWest (260°)23.0 mph40.3 mphScattered Clouds
1:53 PM44.6 °F10.4 °F25 %30.05 in60.0 miWest (280°)29.9 mph43.7 mphScattered Clouds
2:47 PM46.4 °F12.2 °F25 %30.05 in60.0 miWest (280°)27.6 mph39.1 mphScattered Clouds
3:50 PM46.4 °F12.2 °F25 %30.05 in50.0 miWest (280°)16.1 mph21.9 mphScattered Clouds
4:50 PM44.6 °F12.2 °F27 %30.06 in60.0 miWNW (290°)9.2 mphScattered Clouds
5:50 PM41.0 °F12.2 °F31 %30.06 in20.0 miVariable3.5 mphMostly Cloudy
6:50 PM37.4 °F23.0 °F56 %30.08 in20.0 miNE (40°)4.6 mphMostly Cloudy
7:49 PM35.6 °F23.0 °F60 %30.09 in20.0 miCalmMostly Cloudy
8:55 PM39.2 °F17.6 °F42 %30.10 in20.0 miVariable3.5 mphMostly Cloudy
9:48 PM32.0 °F23.0 °F69 %30.10 in20.0 miCalmMostly Cloudy
10:16 PM32.0 °F23.0 °F69 %30.10 in10.0 miNNW (330°)9.2 mphClear
10:36 PM32.0 °F23.0 °F69 %30.10 in10.0 miWNW (290°)4.6 mphClear
11:16 PM32.0 °F21.2 °F64 %30.09 in10.0 miWest (270°)3.5 mphClear
11:36 PM35.6 °F15.8 °F44 %30.09 in10.0 miWNW (290°)10.4 mphClear
11:56 PM35.6 °F15.8 °F44 %30.08 in10.0 miWest (270°)12.7 mphClear
Hourly data recorded from KBJC, located miles away from Nederland, Colorado







STORIES FROM OUR PARTNERS